Weather History for Keahole Point, HI

Change the Weather History Date:

Monday, February 18, 2013

  Actual Average Record
Temperature  
Mean Temperature 75 °F -  
Max Temperature 80 °F 79 °F 86 °F (1984)
Min Temperature 70 °F 66 °F 61 °F (1986)
Cooling Degree Days 10    
Growing Degree Days 25 (Base 50)    
Moisture  
Dew Point 61 °F    
Average Humidity 63    
Maximum Humidity 71    
Minimum Humidity 52    
Precipitation  
Precipitation 0.00 in - - ()
Sea Level Pressure  
Sea Level Pressure 30.02 in    
Wind  
Wind Speed 7 mph (ESE)    
Max Wind Speed 13 mph    
Max Gust Speed -    
Visibility 10 miles    
Events Rain    
Averages and records for this station are not official NWS values.
T = Trace of Precipitation, MM = Missing Value Source: NWS Daily Summary

Daily Weather History Graph

Daily Weather History Graph

Search for Another Location

Airport:

Trip Planner

Search our weather history database for the weather conditions in past years. The results will help you decide how hot, cold, wet, or windy it might be!

Date:

Astronomy

Feb. 18, 2013 Rise Set
Actual Time 6:51 AM HST 6:25 PM HST
Civil Twilight 6:28 AM HST 6:47 PM HST
Nautical Twilight 6:02 AM HST 7:13 PM HST
Astronomical Twilight 5:37 AM HST 7:39 PM HST
Moon 12:41 PM HST (2/18) 1:19 AM HST (2/18)
Length of Visible Light 12h 18m
Length of Day
11h 34m
First Quarter, 60% of the Moon is Illuminated
Feb 18
First Quarter
Feb 25
Full
Mar 4
Last Quarter
Mar 11
New
Mar 19
First Quarter

Hourly Weather History & Observations

Time (HST) Temp. Heat Index Dew Point Humidity Pressure Visibility Wind Dir Wind Speed Gust Speed Precip Events Conditions
12:53 AM 72.0 °F - 55.9 °F 57% 30.03 in 10.0 mi SE 9.2 mph - N/A   Clear
1:53 AM 72.0 °F - 57.9 °F 61% 30.03 in 10.0 mi ESE 6.9 mph - N/A   Scattered Clouds
2:53 AM 72.0 °F - 59.0 °F 64% 30.01 in 10.0 mi SE 8.1 mph - N/A   Clear
3:53 AM 70.0 °F - 59.0 °F 68% 29.99 in 10.0 mi NE 6.9 mph - N/A   Clear
4:53 AM 70.0 °F - 60.1 °F 71% 29.99 in 10.0 mi SE 4.6 mph - N/A   Partly Cloudy
5:53 AM 71.1 °F - 60.1 °F 68% 30.02 in 10.0 mi SE 8.1 mph - N/A   Mostly Cloudy
6:53 AM 71.1 °F - 59.0 °F 66% 30.04 in 10.0 mi SE 9.2 mph - N/A   Clear
7:53 AM 73.9 °F - 60.1 °F 62% 30.06 in 10.0 mi Calm Calm - N/A   Scattered Clouds
8:53 AM 75.9 °F - 62.1 °F 62% 30.07 in 10.0 mi West 3.5 mph - N/A   Mostly Cloudy
9:53 AM 75.9 °F - 59.0 °F 56% 30.06 in 10.0 mi NW 3.5 mph - N/A   Mostly Cloudy
10:53 AM 77.0 °F - 60.1 °F 56% 30.06 in 10.0 mi WNW 5.8 mph - N/A   Scattered Clouds
11:53 AM 78.1 °F - 62.1 °F 58% 30.04 in 10.0 mi SSE 8.1 mph - N/A   Mostly Cloudy
12:53 PM 80.1 °F 81.5 °F 63.0 °F 56% 30.01 in 10.0 mi South 11.5 mph - N/A   Partly Cloudy
1:53 PM 80.1 °F 81.1 °F 61.0 °F 52% 29.99 in 10.0 mi South 12.7 mph - N/A   Clear
2:53 PM 79.0 °F - 62.1 °F 56% 29.97 in 10.0 mi South 12.7 mph - N/A   Mostly Cloudy
3:53 PM 78.1 °F - 63.0 °F 60% 29.97 in 10.0 mi South 12.7 mph - N/A   Mostly Cloudy
4:53 PM 77.0 °F - 63.0 °F 62% 29.97 in 10.0 mi South 11.5 mph - N/A   Mostly Cloudy
5:53 PM 75.9 °F - 63.0 °F 64% 29.98 in 10.0 mi SSW 5.8 mph - N/A   Partly Cloudy
6:53 PM 75.9 °F - 63.0 °F 64% 29.99 in 10.0 mi South 3.5 mph - N/A   Mostly Cloudy
7:53 PM 75.0 °F - 63.0 °F 66% 30.01 in 10.0 mi ESE 4.6 mph - N/A   Partly Cloudy
8:53 PM 73.9 °F - 63.0 °F 68% 30.04 in 10.0 mi ESE 3.5 mph - N/A   Clear
9:49 PM 73.4 °F - 62.6 °F 69% 30.05 in 10.0 mi NE 4.6 mph - N/A   Overcast
9:53 PM 73.9 °F - 62.1 °F 66% 30.06 in 10.0 mi NNE 4.6 mph - N/A   Overcast
10:53 PM 73.0 °F - 61.0 °F 66% 30.05 in 10.0 mi North 4.6 mph - 0.00 in Rain Light Rain
11:22 PM 71.6 °F - 59.0 °F 64% 30.05 in 10.0 mi North 3.5 mph - N/A   Mostly Cloudy
11:33 PM 73.4 °F - 59.0 °F 61% 30.05 in 10.0 mi North 4.6 mph - N/A   Mostly Cloudy
11:43 PM 71.6 °F - 60.8 °F 69% 30.04 in 10.0 mi NE 5.8 mph - N/A   Mostly Cloudy
11:53 PM 72.0 °F - 59.0 °F 64% 30.05 in 10.0 mi NE 5.8 mph - N/A   Mostly Cloudy